Location: Recife
(8.0585°S, 34.8848°W)
Time: 21:34:22
(UTC-03:00)

Altair - Pass Details

Date: 15 April 2026
Orbit: 1501 x 1682 km, 47.2° (Epoch: 17 May)

Event Time Altitude Azimuth Distance (km) Brightness Sun altitude
Rises 20:47:43 0° 334° (NNW) 4,658 10.3 -52.5°
Enters shadow 20:50:48 10° 340° (NNW) 3,701 9.6 -53.3°
Reaches altitude 10° 20:50:56 10° 340° (NNW) 3,663 - -53.3°
Maximum altitude 20:59:36 47° 51° (NE) 1,910 - -55.4°
Drops below altitude 10° 21:08:15 10° 122° (ESE) 3,662 - -57.6°
Sets 21:11:26 0° 128° (SE) 4,657 - -58.3°
